Location: Central Springs Elementary School at Manly
(43.2859°N, 93.1959°W)
Time: 06:53:38
(UTC+00:00)

UNISAT 6 - Pass Details

Date: 11 December 2024
Orbit: 584 x 653 km, 97.7° (Epoch: 18 January)

Event Time Altitude Azimuth Distance (km) Brightness Sun altitude
Rises 23:05:56 0° 7° (N) 2,830 ? -5.4°
Reaches altitude 10° 23:08:08 10° 1° (N) 1,930 ? -5.8°
Maximum altitude 23:12:09 48° 288° (WNW) 782 ? -6.4°
Drops below altitude 10° 23:16:13 10° 213° (SSW) 1,948 ? -7.1°
Sets 23:18:27 0° 208° (SSW) 2,858 ? -7.4°
